Probability
0 0 0 0 0 0 0 0 0 0 0 0 0 0 0 0 0 0 0 0 0 0 0 0 0 0 0 0 0 0 0 0 0 0 0 0 0 0 0 0 0 0 0
1 1 0 0 0 0 0 0 0 0 0 0 0 0 0 0 0 0 0 0 0 0 0 0 0 0 0 0 0 0 0 0 0 0 0 0 0 0 0 0 0 0 0
4 2 1 0 0 0 0 0 0 0 0 0 0 0 0 0 0 0 0 0 0 0 0 0 0 0 0 0 0 0 0 0 0 0 0 0 0 0 0 0 0 0 0
12 7 2 0 0 0 0 0 0 0 0 0 0 0 0 0 0 0 0 0 0 0 0 0 0 0 0 0 0 0 0 0 0 0 0 0 0 0 0 0 0 0 0
28 16 4 0 0 0 0 0 0 0 0 0 0 0 0 0 0 0 0 0 0 0 0 0 0 0 0 0 0 0 0 0 0 0 0 0 0 0 0 0 0 0 0
43 25 6 0 0 0 0 0 0 0 0 0 0 0 0 0 0 0 0 0 0 0 0 0 0 0 0 0 0 0 0 0 0 0 0 0 0 0 0 0 0 0 0
43 24 5 0 0 0 0 0 0 0 0 0 0 0 0 0 0 0 0 0 0 0 0 0 0 0 0 0 0 0 0 0 0 0 0 0 0 0 0 0 0 0 0
26 14 3 0 0 0 0 0 0 0 0 0 0 0 0 0 0 0 0 0 0 0 0 0 0 0 0 0 0 0 0 0 0 0 0 0 0 0 0 0 0 0 0
7 4 0 0 0 0 0 0 0 0 0 0 0 0 0 0 0 0 0 0 0 0 0 0 0 0 0 0 0 0 0 0 0 0 0 0 0 0 0 0 0 0 0
0 0 0 0 0 0 0 0 0 0 0 0 0 0 0 0 0 0 0 0 0 0 0 0 0 0 0 0 0 0 0 0 0 0 0 0 0 0 0 0 0 0 0
0 0 0 0 0 0 0 0 0 0 0 0 0 0 0 0 0 0 0 0 0 0 0 0 0 0 0 0 0 0 0 0 0 0 0 0 0 0 0 0 0 0 0
0 0 0 0 0 0 0 0 0 0 0 0 0 0 0 0 0 0 0 0 0 0 0 0 0 0 0 0 0 0 0 0 0 0 0 0 0 0 0 0 0 0 0
0 0 0 0 0 0 0 0 0 0 0 0 0 0 0 0 0 0 0 0 0 0 0 0 0 0 0 0 0 0 0 0 0 0 0 0 0 0 0 0 0 0 0
0 0 0 0 0 0 0 0 0 0 0 0 0 0 0 0 0 0 0 0 0 0 0 0 0 0 0 0 0 0 0 0 0 0 0 0 0 0 0 0 0 0 0
0 0 0 0 0 0 0 0 0 0 0 0 0 0 0 0 0 0 0 0 0 0 0 0 0 0 0 0 0 0 0 0 0 0 0 0 0 0 0 0 0 0 0
0 0 0 0 0 0 0 0 0 0 0 0 0 0 0 0 0 0 0 0 0 0 0 0 0 0 0 0 0 0 0 0 0 0 0 0 0 0 0 0 0 0 0
0 0 0 0 0 0 0 0 0 0 0 0 0 0 0 0 0 0 0 0 0 0 0 0 0 0 0 0 0 0 0 0 0 0 0 0 0 0 0 0 0 0 0
0 0 0 0 0 0 0 0 0 0 0 0 0 0 0 0 0 0 0 0 0 0 0 0 0 0 0 0 0 0 0 0 0 0 0 0 0 0 0 0 0 0 0
0 0 0 0 0 0 0 0 0 0 0 0 0 0 0 0 0 0 0 0 0 0 0 0 0 0 0 0 0 0 0 0 0 0 0 0 0 0 0 0 0 0 0
0 0 0 0 0 0 0 0 0 0 0 0 0 0 0 0 0 0 0 0 0 0 0 0 0 0 0 0 0 0 0 0 0 0 0 0 0 0 0 0 0 0 0
0 0 0 0 0 0 0 0 0 0 0 0 0 0 0 0 0 0 0 0 0 0 0 0 0 0 0 0 0 0 0 0 0 0 0 0 0 0 0 0 0 0 0
0 0 0 0 0 0 0 0 0 0 0 0 0 0 0 0 0 0 0 0 0 0 0 0 0 0 0 0 0 0 0 0 0 0 0 0 0 0 0 0 0 0 0
0 0 0 0 0 0 0 0 0 0 0 0 0 0 0 0 0 0 0 0 0 0 0 0 0 0 0 0 0 0 0 0 0 0 0 0 0 0 0 0 0 0 0
0 0 0 0 0 0 0 0 0 0 0 0 0 0 0 0 0 0 0 0 0 0 0 0 0 0 0 0 0 0 0 0 0 0 0 0 0 0 0 0 0 0 0
0 0 0 0 0 0 0 0 0 0 0 0 0 0 0 0 0 0 0 0 0 0 0 0 0 0 0 0 0 0 0 0 0 0 0 0 0 0 0 0 0 0 0
0 0 0 0 0 0 0 0 0 0 0 0 0 0 0 0 0 0 0 0 0 0 0 0 0 0 0 0 0 0 0 0 0 0 0 0 0 0 0 0 0 0 0
Wind_Speed
8 8 6 5 5 5 5 5 7 6 5 4 4 5 4 4 5 6 8 7 7 7 6 5 5 5 5 5 5 3 3 3 3 2 3 3 2 2 1 2 3 3 3
9 7 6 5 6 6 6 6 6 5 4 4 4 5 5 5 4 4 7 7 8 7 7 7 6 5 4 6 5 4 2 2 3 2 2 3 3 2 2 3 4 4 4
11 9 8 8 7 7 7 7 7 7 7 6 6 6 4 4 4 5 4 7 8 8 7 6 5 5 4 3 3 3 2 2 2 1 1 2 4 3 3 4 3 5 6
10 10 10 10 9 9 9 9 9 9 8 7 8 8 6 4 4 3 4 6 7 7 6 5 5 4 4 4 4 4 3 2 2 2 1 2 2 4 4 3 4 6 7
11 12 12 12 11 10 10 10 11 11 10 9 9 9 8 5 3 4 5 5 5 5 5 5 4 4 3 3 4 4 3 2 2 2 2 2 2 3 4 7 6 7 7
13 13 13 13 12 11 11 10 11 11 10 10 9 9 7 5 5 4 3 3 2 3 4 3 3 2 2 2 3 3 3 2 2 2 2 2 3 4 5 7 9 9 8
13 14 14 13 12 12 10 10 11 9 8 9 7 6 6 5 4 2 2 1 1 2 2 2 1 1 1 1 1 2 2 1 2 2 3 4 5 6 6 8 8 9 7
13 14 14 13 12 11 9 9 9 7 6 7 5 4 4 3 2 1 1 1 2 2 2 2 1 1 1 1 1 1 2 1 3 5 5 6 7 7 6 6 7 9 8
15 16 15 13 12 11 8 8 8 6 5 5 5 3 3 2 2 1 1 1 2 2 3 3 2 2 2 2 1 2 3 3 4 5 7 7 7 7 7 7 7 7 9
15 15 13 12 11 9 7 7 6 6 5 5 4 3 2 1 0 1 2 2 3 3 3 4 3 4 5 5 4 4 4 4 5 5 7 7 7 7 7 7 7 7 9
17 14 12 12 11 11 9 8 7 6 5 4 3 2 1 1 1 2 3 3 3 4 4 5 4 5 6 6 5 6 7 7 7 7 8 10 10 8 7 7 7 8 8
15 13 11 10 8 8 7 7 6 5 4 2 1 2 1 1 1 3 4 4 4 5 5 5 5 6 7 7 7 9 8 7 8 9 9 11 9 11 9 8 9 8 8
15 13 11 9 8 6 4 3 2 3 2 0 2 2 2 2 3 5 5 5 5 6 7 6 6 7 7 7 8 9 8 7 7 8 10 12 12 12 10 11 10 8 7
16 14 11 9 8 6 4 3 2 2 1 1 2 3 4 5 6 6 6 6 6 7 8 8 8 7 6 7 7 6 5 5 7 9 11 12 13 13 13 11 10 8 7
17 14 11 9 8 7 5 4 3 2 1 2 3 4 5 5 6 6 6 6 7 8 8 8 8 6 5 4 3 2 4 6 9 10 12 12 17 19 14 10 8 7 7
17 14 12 11 9 7 5 4 3 2 2 3 4 4 5 6 7 7 6 6 8 8 8 8 6 5 3 5 8 7 4 7 10 12 12 13 14 15 16 17 15 14 11
16 14 12 10 7 6 5 5 2 2 3 4 5 5 5 7 8 8 7 7 7 6 6 5 5 4 2 5 9 15 9 10 11 12 12 11 12 15 11 14 17 16 19
14 12 10 7 5 4 3 2 2 3 3 4 5 6 6 6 6 6 7 7 6 5 5 6 6 4 6 10 12 18 11 11 12 12 12 12 13 12 12 12 13 14 14
9 8 7 6 5 4 3 2 2 2 3 4 5 6 6 5 6 8 8 6 5 6 5 5 6 7 8 13 15 17 10 10 13 12 11 12 11 14 16 13 12 14 13
8 7 5 4 4 3 2 1 1 3 4 5 5 5 5 7 7 7 5 5 4 5 6 6 7 7 8 13 15 17 8 10 11 11 11 14 13 14 15 11 10 12 12
7 6 6 5 4 3 2 1 2 3 3 3 5 7 7 7 6 5 4 5 5 6 7 8 8 8 9 11 14 17 9 9 10 9 9 8 13 14 14 11 9 11 12
6 6 5 4 2 2 1 2 3 3 2 5 6 6 6 5 4 5 5 5 6 6 7 8 8 7 8 10 13 18 16 14 10 9 8 8 14 14 13 9 10 13 8
6 4 4 3 1 1 1 1 3 2 5 6 6 6 6 5 4 4 4 4 4 5 7 7 8 9 8 10 15 15 16 18 11 9 15 17 15 12 8 10 13 8 2
4 4 4 2 2 3 2 1 1 5 6 6 5 5 5 5 5 4 3 4 5 6 8 8 8 8 9 9 10 10 10 13 11 10 13 15 11 9 9 9 7 4 5
3 3 4 3 1 2 2 2 5 7 7 6 5 4 4 5 5 5 4 4 3 4 6 7 6 7 8 12 17 12 10 10 11 11 7 5 6 7 7 7 6 5 6
4 4 4 3 3 3 4 5 6 7 8 6 4 4 4 4 5 5 6 7 5 5 7 8 8 7 9 16 17 18 18 17 17 9 6 7 8 8 8 7 6 7 7
Wind_Direction
117 100 91 74 66 65 77 91 104 106 111 106 100 92 77 61 57 57 53 50 52 53 52 51 42 41 51 46 37 44 50 25 355 359 330 313 285 192 143 11 326 293 285
130 114 96 72 74 79 77 83 86 87 86 94 96 96 103 84 72 58 46 41 47 47 54 51 48 42 47 43 36 33 20 357 15 14 322 317 311 280 331 326 301 310 313
151 128 110 100 91 79 69 70 66 68 67 81 92 92 81 69 51 42 40 37 53 58 56 54 55 47 46 34 20 25 26 329 320 302 268 294 285 305 286 290 318 326 319
144 130 121 109 96 86 77 73 69 63 58 66 81 81 81 77 58 62 61 47 46 47 45 41 41 37 30 18 356 14 353 334 318 317 322 270 277 290 302 291 297 303 305
145 135 125 112 98 89 81 75 71 62 57 60 70 77 76 76 70 64 61 49 36 32 33 37 36 34 27 21 17 11 4 351 327 323 322 318 304 260 282 293 295 298 292
138 128 117 106 97 89 83 78 74 65 62 67 69 80 87 85 78 64 55 33 12 5 11 30 36 32 21 11 3 356 356 356 345 331 315 297 291 297 289 291 298 297 294
137 128 119 113 106 98 93 90 89 81 75 79 76 81 91 95 101 101 75 38 347 325 330 352 3 359 335 325 333 334 340 355 346 318 299 285 278 277 281 286 291 289 293
134 129 125 121 113 104 97 96 97 96 92 90 83 80 92 100 105 120 153 217 251 262 274 287 283 285 300 302 303 299 294 306 310 308 298 291 287 280 274 274 286 293 290
133 130 127 121 117 111 108 113 117 118 116 115 114 110 117 123 127 154 236 261 275 274 296 305 316 307 291 279 262 250 268 285 285 292 296 295 289 283 275 267 264 271 286
132 131 127 124 121 121 124 122 134 142 146 142 136 133 130 120 107 330 327 312 306 302 306 297 297 290 276 264 259 266 269 273 277 282 294 298 298 291 279 268 263 253 264
141 139 135 136 135 134 133 129 141 151 154 147 135 140 177 203 281 294 289 292 298 303 291 273 273 277 269 260 255 259 264 265 278 290 297 302 305 298 287 273 263 257 256
146 141 136 131 128 125 129 140 157 158 148 133 170 217 229 252 273 276 275 275 278 282 279 278 275 274 269 259 251 259 264 264 278 291 298 299 302 299 293 280 271 266 254
146 140 136 136 132 122 123 130 143 135 110 135 265 280 290 283 272 273 277 280 275 278 277 267 261 266 269 269 264 263 269 270 277 289 294 293 294 293 289 284 280 274 265
154 149 145 137 128 128 141 150 161 159 173 238 268 277 273 266 264 266 270 271 265 266 271 268 265 270 280 283 283 281 275 282 292 295 293 290 287 285 284 283 281 282 283
157 155 148 139 142 151 160 164 172 185 219 255 266 264 265 265 265 268 269 270 267 267 269 275 281 291 299 307 333 335 314 307 306 303 299 295 294 288 286 290 295 300 293
159 153 148 151 159 163 166 170 188 221 248 255 259 268 279 284 285 285 285 285 284 285 286 282 290 311 345 36 20 353 318 311 309 306 305 304 300 300 303 306 307 300 291
156 152 155 159 162 164 164 171 201 257 268 273 283 288 289 290 291 297 303 302 301 312 322 336 352 357 351 2 352 340 332 316 310 304 303 304 304 306 296 298 302 295 284
151 149 150 148 147 149 150 175 236 260 281 294 298 300 303 303 316 337 351 359 8 16 16 17 12 353 327 332 335 338 332 318 308 303 299 296 296 295 294 297 295 290 287
130 135 134 133 140 150 169 201 272 297 306 308 312 320 333 353 22 36 36 34 34 26 14 4 4 357 342 339 337 340 325 314 309 306 301 296 293 293 296 299 296 295 297
107 112 110 114 136 167 182 197 316 325 324 323 331 2 42 63 64 55 42 27 25 14 1 359 356 352 343 335 332 332 319 311 310 308 303 299 296 298 304 303 297 297 305
124 133 135 137 155 172 170 47 339 326 324 358 58 69 70 72 67 56 42 28 19 7 358 352 346 338 326 322 322 326 324 310 306 304 304 303 305 309 308 302 291 289 297
139 138 131 138 167 174 116 13 331 325 44 82 82 72 61 61 61 54 39 27 17 5 355 352 349 336 324 323 326 327 326 323 312 311 311 311 317 317 312 307 303 304 300
131 126 136 149 190 91 99 346 330 50 94 90 82 69 56 43 35 34 20 3 356 354 350 355 353 344 339 336 335 333 332 335 333 322 325 328 328 328 326 326 327 329 10
128 130 129 107 32 36 87 217 75 101 103 95 79 57 40 24 14 6 355 346 346 351 355 355 349 341 338 344 346 343 340 339 339 331 326 328 331 339 338 338 347 24 63
109 112 115 105 51 41 51 87 109 109 100 90 75 49 33 20 7 0 349 351 351 8 4 356 343 337 339 339 338 342 342 343 338 329 330 350 359 0 356 359 17 44 64
105 102 93 77 57 68 80 89 103 110 105 91 67 44 30 21 16 8 3 3 8 2 7 358 347 328 325 329 336 341 341 340 340 342 353 11 14 9 4 9 28 52 63